Regional Weather Roundup
Issued by NWS

Home | Current Version | Previous Version | Graphics & Text | Print | Product List | Glossary On
Versions: 1 2 3 4 5 6 7 8 9 10 11 12 13 14 15 16 17 18 19 20 21 22 23 24 25 26 27
000
ASUS45 KBOU 232107
RWRCO

WEATHER ROUNDUP FOR COLORADO
NATIONAL WEATHER SERVICE DENVER/BOULDER CO
300 PM MDT FRI JUN 23 2017

NOTE: "FAIR" INDICATES FEW OR NO CLOUDS BELOW 12000 FEET WITH NO
SIGNIFICANT WEATHER AND/OR OBSTRUCTIONS TO VISIBILITY.

COZ001>005-013-030-031-232200-
...NORTHWEST COLORADO...

CITY           SKY/WX    TMP DP  RH WIND       PRES   REMARKS
CRAIG          FAIR      79  21  11 SW12G18   30.20F
HAYDEN         FAIR      75  27  16 NW8G21    30.22F
MEEKER         FAIR      81  25  12 N6G18     30.20S
RABBIT EARS PA FAIR      55  27  33 W9G25     30.46F
STEAMBOAT SPGS FAIR      73  30  19 W12G22    30.23F
WALDEN         FAIR      70  30  23 NW13G21   30.31R
$$

COZ006>008-011-232200-
...WEST CENTRAL VALLEYS...

CITY           SKY/WX    TMP DP  RH WIND       PRES   REMARKS
GRAND JUNCTION FAIR      90  27  10 SW13      30.04F
MONTROSE       FAIR      87  27  11 NW10      30.11F
EAGLE          SUNNY     84  27  12 SW18G25   30.14F
RIFLE          FAIR      89  21   8 N16G24    30.09F
DELTA          FAIR      94  15   5 W16G24    30.05F
NUCLA          FAIR      88  19   8 N10       30.16F
$$

COZ017>023-064>068-232200-
...SOUTHWEST COLORADO...

CITY           SKY/WX    TMP DP  RH WIND       PRES   REMARKS
DURANGO        FAIR      90  14   6 W24G33    30.13S
CORTEZ         FAIR      94  21   7 W18G26    30.10F
PAGOSA SPRINGS FAIR      88  -1   3 W21G32    30.18F
TELLURIDE      FAIR      77  16  10 W13       30.40S
WOLF CREEK PAS FAIR      64  19  17 S17G29    30.58F
$$

COZ009-010-012-014-032>034-037-058>063-232200-
...CENTRAL COLORADO...

CITY           SKY/WX    TMP DP  RH WIND       PRES   REMARKS
ASPEN          FAIR      80  21  11 N18G24    30.22F
BUENA VISTA    FAIR      71  41  34 SE12G22   30.23F
COPPER MTN     FAIR      63   9  12 NW20G29   30.53F
BERTHOUD PASS  FAIR      52  37  58 NW30G38   30.56S
COTTONWOOD PAS FAIR      73  37  27 E6        30.37S
GUNNISON       FAIR      78  30  17 SW15G28   30.21F
KREMMLING      NOT AVBL
LEADVILLE      FAIR      69  -2   6 W17G24    30.37S
MONARCH PASS   FAIR      61  25  25 SW25G46   30.63F
SALIDA         FAIR      64  47  54 SE25G35   30.30F
SUNLIGHT       FAIR      63  25  23 SW12G24   30.51S
WILKERSON PASS FAIR      59  41  51 S3        30.49F
$$

COZ069>075-232200-
...SAN LUIS VALLEY/SANGRE DE CRISTO MOUNTAINS...

CITY           SKY/WX    TMP DP  RH WIND       PRES   REMARKS
ALAMOSA        FAIR      82  39  21 SE8       30.15F
DEL NORTE      FAIR      81  43  26 E7        30.19S
LA VETA PASS   LGT RAIN  46  43  87 N9        30.52F VSB<1/4
SAGUACHE       FAIR      86  14   7 NW24G38   30.19S
$$

COZ035-036-038>040-232200-
...NORTHERN COLORADO FRONT RANGE...

CITY           SKY/WX    TMP DP  RH WIND       PRES   REMARKS
DENVER INTL AP PTSUNNY   58  44  60 SE9       30.27F
DMNS CITY PARK   N/A     55  44  68 E12       30.27F
AURORA         CLOUDY    53  45  75 E9        30.29F
FRONT RANGE AP CLOUDY    57  45  62 SE8       30.28F
ERIE MUNI ARPT CLOUDY    59  45  61 S7        30.27F
BOULDER MUN AP CLOUDY    55  45  67 S3        30.28S
CENTENNIAL     CLOUDY    51  46  83 E9        30.28F
BROOMFIELD     CLOUDY    54  45  71 E6        30.29F
FORT COLLINS   CLOUDY    61  45  55 S12       30.27S
LONGMONT       CLOUDY    62  45  53 SW3       30.28F
$$

COZ041-046-047-076>085-087-088-232200-
...PIKES PEAK/PALMER DIVIDE AND SOUTHERN FOOTHILLS...

CITY           SKY/WX    TMP DP  RH WIND       PRES   REMARKS
COLO. SPRINGS  CLOUDY    56  46  69 SE16G22   30.28F
A. F. ACADEMY  CLOUDY    54  44  69 SE13      30.28F
SCHRIEVER AFB  CLOUDY    56  44  64 S12       30.29F
CHEYENNE MTN   CLOUDY    50  46  85 SE14G23   30.23S
ELLICOTT       CLOUDY   N/A N/A N/A S8        30.27F
FALCON           N/A     54  43  66 S15       30.31S
FORT CARSON    CLOUDY    57  46  68 SE15      30.26F
LIMON          CLOUDY    60  43  53 E5        30.26F
MONUMENT HILL  CLOUDY    52  43  71 S12       30.32S
CANON CITY     CLOUDY    57  52  82 SE3       30.26F
WALSENBURG     CLOUDY    57  50  77 SE8       30.28F
TRINIDAD       CLOUDY    60  45  57 E5        30.27F
$$

COZ042>045-048>051-090-091-232200-
...NORTHEAST COLORADO...

CITY           SKY/WX    TMP DP  RH WIND       PRES   REMARKS
GREELEY ARPT   CLOUDY    65  45  48 S7        30.26S
AKRON          CLOUDY    64  41  42 VRB3      30.24F
BURLINGTON     CLOUDY    64  46  52 N7        30.23F
WRAY           CLOUDY    75  41  29 CALM      30.20F
YUMA           MOCLDY    68  41  37 NW7       30.21F
STERLING       CLOUDY    70  43  37 N5        30.20F
HOLYOKE        NOT AVBL
FORT MORGAN    CLOUDY    66  42  41 SW6       30.24F
$$

COZ086-089-092>099-232200-
...SOUTHEAST COLORADO...

CITY           SKY/WX    TMP DP  RH WIND       PRES   REMARKS
PUEBLO         CLOUDY    61  49  64 S6        30.23F
LA JUNTA       PTSUNNY   67  45  45 S6        30.22F
LAMAR          PTSUNNY   70  44  39 VRB7      30.19F
SPRINGFIELD      N/A     68  47  46 NE10G18   30.21F
$$




USA.gov is the U.S. government's official web portal to all federal, state and local government web resources and services.